Back to catalog

STARLINK-11402

AliveCommunicationsVLEO
NORAD 61874·PAYLOAD·🇺🇸 United States

Launched Nov 9, 2024 from Vandenberg Space Force Base

Loading…

Next Passes (next 24 hours)

TLE

FreshSource: CelesTrak SupGP

Epoch: Sep 14, 2026, 21:31 UTC

1 61874C 24204A   26257.89701389 -.00046682  00000+0 -38445-3 0  2576
2 61874  53.1565 143.9027 0001187  88.3938  38.8016 15.69737446    14

Track STARLINK-11402 in real time with AllMySat

Download on the App Store